Date_and_time,latitude,longitude,wind_speed,RelWindDirFrom,WindDirFrom,air_pressure,air_temperature,relative_humidity,Temp,platform_speed_wrt_ground,air_pressure_at_mean_sea_level,platform_orientation
2019-08-08 23:50,50.6304466666667,-96.9807866666667,10.7,18.5,287,984.75,22.9,36,21.99,0.0,1010.37,235.8
2019-08-09 00:00,50.630445,-96.9807833333333,8.5,14.2,294,984.79,22.5,38,21.99,0.0,1010.42,238.9
2019-08-09 00:10,50.630445,-96.9807833333333,8.1,13.2,292,984.88,22.6,37,21.99,0.0,1010.50,238.9
2019-08-09 00:20,50.6304466666667,-96.9807816666667,8.3,12.8,304,984.92,22.6,37,21.97,0.0,1010.55,238.9
2019-08-09 00:30,50.6304466666667,-96.9807833333333,8.6,13.0,303,985.04,22.7,37,21.96,0.0,1010.67,238.9
2019-08-09 00:40,50.6304466666667,-96.9807816666667,8.3,13.2,307,985.12,22.6,38,21.95,0.0,1010.75,238.9
2019-08-09 00:50,50.6304733333333,-96.9807933333333,7.6,11.0,306,985.16,22.4,38,21.93,0.0,1010.82,238.9
2019-08-09 01:00,50.6304483333333,-96.9807666666667,7.3,10.9,308,985.23,22.3,39,21.91,0.0,1010.87,130.6
2019-08-09 01:10,50.63045,-96.9807716666667,8.3,14.3,308,985.26,22.2,39,21.90,0.0,1010.90,130.6
2019-08-09 01:20,50.6304483333333,-96.9807883333333,7.4,11.8,309,985.37,21.9,39,21.90,0.0,1011.03,130.6
2019-08-09 01:30,50.63045,-96.9807816666667,5.4,7.9,312,985.48,21.7,41,21.90,0.0,1011.15,130.6
2019-08-09 01:40,50.6304433333333,-96.9807733333333,4.9,7.2,337,985.59,21.4,44,21.89,0.0,1011.29,130.6
2019-08-09 01:50,50.6304466666667,-96.980775,5.5,9.3,352,985.69,21.0,50,21.89,0.0,1011.42,130.6
2019-08-09 02:00,50.6304483333333,-96.98078,10.1,12.2,11,985.63,20.7,62,21.88,0.0,1011.36,73.2
2019-08-09 02:10,50.63045,-96.98078,12.0,14.5,19,985.60,20.4,63,21.88,0.0,1011.35,73.2
2019-08-09 02:20,50.63046,-96.9807916666667,12.0,14.5,16,985.70,20.2,63,21.87,0.0,1011.46,73.2
2019-08-09 02:30,50.630455,-96.9807766666667,10.6,13.6,7,985.75,20.2,64,21.87,0.0,1011.51,73.2
2019-08-09 02:40,50.6304533333333,-96.9807816666667,10.8,13.4,8,985.83,20.1,63,21.86,0.0,1011.61,73.2
2019-08-09 02:50,50.6304516666667,-96.98078,9.6,11.8,4,985.88,20.0,63,21.83,0.0,1011.66,73.2
2019-08-09 03:00,50.6304516666667,-96.9807766666667,8.2,12.6,357,985.99,19.9,62,21.82,0.0,1011.78,12.6
2019-08-09 03:10,50.6304183333333,-96.98077,8.0,11.4,356,986.07,19.9,61,21.82,0.0,1011.88,12.6
2019-08-09 03:20,50.6304483333333,-96.98077,5.6,10.2,336,986.21,19.5,62,21.82,0.0,1012.06,12.6
2019-08-09 03:30,50.63044,-96.9807766666667,4.6,6.5,324,986.24,18.6,64,21.82,0.0,1012.14,12.6
2019-08-09 03:40,50.6304416666667,-96.9807666666667,4.5,6.1,317,986.23,18.1,65,21.81,0.0,1012.17,12.6
2019-08-09 03:50,50.6304433333333,-96.9807683333333,4.1,5.8,299,986.31,17.9,64,21.78,0.0,1012.27,12.6
2019-08-09 04:00,50.630445,-96.9807683333333,3.0,4.1,274,986.33,17.4,68,21.76,0.0,1012.33,360.0
2019-08-09 04:10,50.6304533333333,-96.98078,3.4,4.9,280,986.46,16.7,70,21.75,0.0,1012.50,360.0
2019-08-09 04:20,50.6304566666667,-96.9807716666667,3.7,4.8,279,986.57,16.4,69,21.75,0.0,1012.63,360.0
2019-08-09 04:30,50.6304583333333,-96.9807716666667,3.6,5.2,265,986.65,16.1,71,21.74,0.0,1012.74,360.0
2019-08-09 04:40,50.6304583333333,-96.9807716666667,4.3,5.4,267,986.66,15.7,71,21.74,0.0,1012.76,360.0
2019-08-09 04:50,50.6304566666667,-96.9807716666667,4.3,6.2,273,986.72,15.5,71,21.74,0.0,1012.83,360.0
2019-08-09 05:00,50.630455,-96.9807733333333,3.6,5.8,275,986.73,15.4,72,21.72,0.0,1012.85,60.8
2019-08-09 05:10,50.6304533333333,-96.9807733333333,4.5,6.1,271,986.74,15.2,72,21.72,0.0,1012.89,60.8
2019-08-09 05:20,50.6304516666667,-96.9807733333333,4.8,6.2,273,986.74,15.0,72,21.71,0.0,1012.94,60.8
2019-08-09 05:30,50.6304516666667,-96.980775,5.0,6.4,259,986.83,14.9,72,21.71,0.0,1013.06,60.8
2019-08-09 05:40,50.6304516666667,-96.980775,5.9,6.7,255,986.83,14.3,73,21.71,0.0,1013.10,60.8
2019-08-09 05:50,50.6304516666667,-96.9807766666667,6.5,7.4,252,986.83,13.8,74,21.70,0.0,1013.14,60.8
2019-08-09 06:00,50.6304516666667,-96.9807766666667,6.5,7.8,256,986.91,13.7,74,21.69,0.0,1013.26,0.0
2019-08-09 06:10,50.6304683333333,-96.980785,5.7,7.8,252,986.95,13.9,74,21.69,0.0,1013.30,0.0
2019-08-09 06:20,50.630455,-96.98078,6.7,7.8,256,986.97,13.5,75,21.68,0.0,1013.36,0.0
2019-08-09 06:30,50.63045,-96.9807816666667,6.0,8.0,254,986.98,13.2,76,21.68,0.0,1013.40,0.0
2019-08-09 06:40,50.6304533333333,-96.9807816666667,6.5,8.1,251,986.92,13.0,76,21.66,0.0,1013.36,0.0
2019-08-09 06:50,50.6304583333333,-96.980775,7.0,8.5,253,986.85,12.9,76,21.65,0.0,1013.29,0.0
2019-08-09 07:00,50.63046,-96.9807716666667,6.3,8.0,257,986.83,13.1,76,21.64,0.0,1013.28,360.0
2019-08-09 07:10,50.6304616666667,-96.9807766666667,6.3,7.8,255,986.85,13.3,75,21.62,0.0,1013.30,360.0
2019-08-09 07:20,50.6304616666667,-96.9807733333333,7.0,8.4,252,986.80,12.9,76,21.61,0.0,1013.27,360.0
2019-08-09 07:30,50.630455,-96.9807783333333,7.0,8.4,254,986.81,12.8,77,21.59,0.0,1013.31,360.0
2019-08-09 07:40,50.630455,-96.9807783333333,6.5,8.4,255,986.76,13.1,76,21.57,0.0,1013.27,360.0
2019-08-09 07:50,50.6304533333333,-96.9807733333333,7.0,8.9,253,986.75,12.7,76,21.56,0.0,1013.28,360.0
2019-08-09 08:00,50.6304233333333,-96.9807666666667,6.2,8.1,252,986.83,12.6,77,21.55,0.0,1013.36,150.1
2019-08-09 08:10,50.6304466666667,-96.98077,6.6,8.9,250,986.87,12.4,77,21.53,0.0,1013.43,150.1
2019-08-09 08:20,50.6304533333333,-96.980765,6.5,7.9,258,986.88,12.5,77,21.53,0.0,1013.45,150.1
2019-08-09 08:30,50.6304533333333,-96.9807666666667,6.9,9.9,252,986.97,12.8,75,21.52,0.0,1013.53,150.1
2019-08-09 08:40,50.6304533333333,-96.9807716666667,7.3,8.6,250,987.00,12.2,77,21.51,0.0,1013.60,150.1
2019-08-09 08:50,50.630455,-96.9807766666667,6.6,8.3,251,987.06,12.2,78,21.51,0.0,1013.65,150.1
2019-08-09 09:00,50.630455,-96.9807766666667,6.4,8.6,253,986.97,12.3,78,21.50,0.0,1013.55,90.0
2019-08-09 09:10,50.6304533333333,-96.9807766666667,7.2,9.2,251,986.96,12.3,78,21.50,0.0,1013.56,90.0
2019-08-09 09:20,50.630455,-96.980775,5.9,7.5,260,986.89,12.7,78,21.49,0.0,1013.47,90.0
2019-08-09 09:30,50.630455,-96.980755,6.0,8.4,261,986.76,13.0,77,21.45,0.0,1013.30,90.0
2019-08-09 09:40,50.6304466666667,-96.9807766666667,6.8,8.6,258,986.76,12.9,77,21.43,0.0,1013.33,90.0
2019-08-09 09:50,50.6304533333333,-96.9807783333333,6.3,8.5,261,986.83,12.9,78,21.42,0.0,1013.41,90.0
2019-08-09 10:00,50.63045,-96.980765,6.7,8.5,257,986.85,12.8,77,21.41,0.0,1013.44,131.7
2019-08-09 10:10,50.6304483333333,-96.9807783333333,6.9,8.5,258,986.89,12.7,78,21.40,0.0,1013.48,131.7
2019-08-09 10:20,50.6304466666667,-96.98078,6.9,8.8,254,986.99,12.6,79,21.40,0.0,1013.58,131.7
2019-08-09 10:30,50.6304433333333,-96.9807766666667,7.1,9.2,251,987.10,12.1,81,21.40,0.0,1013.74,131.7
2019-08-09 10:40,50.6304483333333,-96.980775,6.6,8.4,253,987.19,11.9,82,21.39,0.0,1013.85,131.7
2019-08-09 10:50,50.6304483333333,-96.9807733333333,7.0,8.6,252,987.32,11.9,83,21.36,0.0,1013.97,131.7
2019-08-09 11:00,50.6304483333333,-96.9807716666667,6.7,8.8,251,987.47,11.7,83,21.34,0.0,1014.13,332.4
2019-08-09 11:10,50.63044,-96.9807833333333,6.8,8.8,253,987.64,11.7,84,21.33,0.0,1014.29,332.4
2019-08-09 11:20,50.6304416666667,-96.9807833333333,6.6,8.4,255,987.64,11.9,84,21.31,0.0,1014.27,332.4
2019-08-09 11:30,50.6304433333333,-96.9807883333333,7.0,8.7,250,987.73,11.8,84,21.31,0.0,1014.38,332.4
2019-08-09 11:40,50.6304416666667,-96.9807866666667,6.3,8.6,247,987.99,11.5,86,21.32,0.0,1014.65,332.4
2019-08-09 11:50,50.6304283333333,-96.98078,6.5,8.7,246,988.12,11.6,84,21.31,0.0,1014.79,332.4
2019-08-09 12:00,50.6304416666667,-96.9807783333333,7.0,8.9,250,988.24,11.8,83,21.28,0.0,1014.90,216.6
2019-08-09 12:10,50.63044,-96.98077,6.6,8.7,243,988.30,12.0,82,21.26,0.0,1014.96,216.6
2019-08-09 12:20,50.6304416666667,-96.98077,6.0,8.7,243,988.38,12.3,82,21.26,0.0,1015.06,216.6
2019-08-09 12:30,50.630445,-96.98077,6.5,8.6,248,988.39,12.6,81,21.26,0.0,1015.06,216.6
2019-08-09 12:40,50.6304533333333,-96.980775,6.5,9.3,251,988.42,13.0,79,21.25,0.0,1015.07,216.6
2019-08-09 12:50,50.6304533333333,-96.98078,6.5,8.6,251,988.38,13.4,78,21.24,0.0,1015.02,216.6
2019-08-09 13:00,50.6304133333333,-96.9807683333333,6.6,8.7,253,988.34,13.9,76,21.25,0.0,1014.96,360.0
2019-08-09 13:10,50.63044,-96.98076,6.0,8.7,253,988.31,14.5,74,21.25,0.0,1014.89,360.0
2019-08-09 13:20,50.6304433333333,-96.980765,5.3,7.3,260,988.27,15.2,70,21.23,0.0,1014.82,360.0
2019-08-09 13:30,50.6304433333333,-96.980765,4.8,6.6,256,988.28,15.9,67,21.22,0.0,1014.80,360.0
2019-08-09 13:40,50.6304433333333,-96.9807633333333,5.3,7.6,249,988.31,16.4,65,21.21,0.0,1014.81,360.0
2019-08-09 13:50,50.630445,-96.9807666666667,4.8,7.6,250,988.28,16.9,62,21.18,0.0,1014.75,360.0
2019-08-09 14:00,50.630445,-96.9807666666667,3.9,6.0,247,988.29,17.6,59,21.17,0.0,1014.72,167.4
2019-08-09 14:10,50.6304466666667,-96.9807666666667,3.6,5.9,262,988.25,18.3,56,21.14,0.0,1014.63,167.4
2019-08-09 14:20,50.6304466666667,-96.9807683333333,5.0,8.8,279,988.22,18.9,53,21.12,0.0,1014.56,167.4
2019-08-09 14:30,50.6304483333333,-96.98077,5.2,9.1,256,988.09,19.2,52,21.12,0.0,1014.39,167.4
2019-08-09 14:40,50.6304416666667,-96.980805,5.6,8.5,256,988.09,19.5,50,21.13,0.0,1014.35,167.4
2019-08-09 14:50,50.6304566666667,-96.9807683333333,5.6,9.6,265,987.98,19.9,50,21.15,0.0,1014.21,167.4
2019-08-09 15:00,50.63045,-96.980775,4.3,6.7,260,987.91,20.1,53,21.16,0.0,1014.10,12.6
2019-08-09 15:10,50.6304366666667,-96.9807933333333,5.0,7.9,293,987.81,20.4,53,21.20,0.0,1013.95,12.6
2019-08-09 15:20,50.6304416666667,-96.98079,4.6,9.1,264,987.79,20.5,51,21.23,0.0,1013.89,12.6
2019-08-09 15:30,50.6304433333333,-96.9807883333333,4.4,8.8,283,987.72,20.8,49,21.25,0.0,1013.78,12.6
2019-08-09 15:40,50.6304433333333,-96.980785,4.5,9.1,280,987.59,20.9,49,21.26,0.0,1013.62,12.6
2019-08-09 15:50,50.6304433333333,-96.9807833333333,4.1,8.2,264,987.53,20.9,47,21.31,0.0,1013.53,12.6
2019-08-09 16:00,50.63045,-96.9807616666667,2.3,7.8,318,987.49,21.3,47,21.36,0.0,1013.43,4.7
2019-08-09 16:10,50.6304433333333,-96.9807683333333,4.0,10.4,309,987.43,21.6,46,21.40,0.0,1013.34,4.7
2019-08-09 16:20,50.6304416666667,-96.9807716666667,3.5,7.3,290,987.39,21.6,44,21.43,0.0,1013.28,4.7
2019-08-09 16:30,50.6304366666667,-96.9807933333333,3.0,6.3,270,987.28,21.8,43,21.43,0.0,1013.15,4.7
2019-08-09 16:40,50.6304366666667,-96.9807733333333,0.8,8.8,272,987.25,22.3,44,21.41,0.0,1013.07,4.7
2019-08-09 16:50,50.6304283333333,-96.9807666666667,3.1,8.2,294,987.36,22.3,40,21.39,0.0,1013.18,4.7
2019-08-09 17:00,50.63043,-96.9807766666667,0.9,6.3,123,987.39,22.6,42,21.38,0.0,1013.18,203.5
2019-08-09 17:10,50.6304483333333,-96.9807883333333,2.9,4.9,129,987.39,22.4,45,21.38,0.0,1013.19,203.5
2019-08-09 17:20,50.6304366666667,-96.980785,5.6,7.8,88,987.32,23.2,44,21.40,0.0,1013.07,203.5
2019-08-09 17:30,50.6304483333333,-96.9807933333333,7.4,9.9,65,987.34,22.2,52,21.41,0.0,1013.14,203.5
2019-08-09 17:40,50.6304516666667,-96.980795,6.5,9.9,96,987.33,22.4,51,21.41,0.0,1013.11,203.5
2019-08-09 17:50,50.6304266666667,-96.9807983333333,7.6,9.8,89,987.15,22.5,51,21.39,0.0,1012.90,203.5
2019-08-09 18:00,50.6304283333333,-96.980795,7.2,9.5,90,987.14,22.7,51,21.42,0.0,1012.87,204.3
2019-08-09 18:10,50.630435,-96.9807966666667,8.9,11.1,97,987.09,22.7,51,21.48,0.0,1012.82,204.3
2019-08-09 18:20,50.6304366666667,-96.9807966666667,7.4,9.2,90,987.06,22.5,52,21.55,0.0,1012.79,204.3
2019-08-09 18:30,50.6304466666667,-96.9807866666667,7.9,9.8,95,986.93,22.2,52,21.55,0.0,1012.64,204.3
2019-08-09 18:40,50.63045,-96.9807866666667,8.9,10.8,103,986.89,22.2,54,21.53,0.0,1012.61,204.3
2019-08-09 18:50,50.6304583333333,-96.9807483333333,9.7,11.3,109,986.86,22.2,55,21.49,0.0,1012.57,204.3
2019-08-09 19:00,50.6304483333333,-96.980775,9.0,11.0,103,986.90,21.8,56,21.43,0.0,1012.63,234.7
2019-08-09 19:10,50.6304516666667,-96.980775,8.6,10.3,97,986.82,21.9,54,21.38,0.0,1012.50,234.7
2019-08-09 19:20,50.630445,-96.9807516666667,9.6,11.5,106,986.66,22.1,55,21.48,0.0,1012.38,234.7
2019-08-09 19:30,50.6304633333333,-96.9808216666667,9.7,11.4,109,986.52,21.9,56,21.50,0.0,1012.24,234.7
2019-08-09 19:40,50.6304616666667,-96.9808083333333,9.5,11.1,106,986.53,22.1,54,21.46,0.0,1012.24,234.7
2019-08-09 19:50,50.6304433333333,-96.980805,9.8,11.7,106,986.45,22.1,53,21.52,0.0,1012.14,234.7
2019-08-09 20:00,50.6304383333333,-96.9807883333333,10.4,12.6,111,986.37,22.1,55,21.63,0.0,1012.06,328.9
2019-08-09 20:10,50.6304366666667,-96.9807916666667,10.5,12.4,109,986.36,22.2,54,21.67,0.0,1012.05,328.9
2019-08-09 20:20,50.6304333333333,-96.9807883333333,10.6,12.1,110,986.25,22.3,53,21.71,0.0,1011.95,328.9
2019-08-09 20:30,50.6304416666667,-96.9807783333333,10.8,12.5,110,986.10,22.4,55,21.76,0.0,1011.79,328.9
2019-08-09 20:40,50.6304583333333,-96.9807916666667,11.1,12.8,109,986.03,22.5,53,21.82,0.0,1011.72,328.9
2019-08-09 20:50,50.630455,-96.9807866666667,10.9,12.9,108,986.01,22.5,55,21.85,0.0,1011.71,328.9
2019-08-09 21:00,50.6304516666667,-96.9807883333333,10.8,12.6,103,985.98,22.8,51,21.87,0.0,1011.66,360.0
2019-08-09 21:10,50.6304516666667,-96.9807866666667,10.4,12.2,102,985.88,23.0,52,21.91,0.0,1011.54,360.0
2019-08-09 21:20,50.6304516666667,-96.9807866666667,10.8,12.9,105,985.77,23.1,51,21.97,0.0,1011.43,360.0
2019-08-09 21:30,50.63045,-96.980785,10.0,11.3,99,985.69,23.3,50,22.04,0.0,1011.33,360.0
2019-08-09 21:40,50.6304483333333,-96.9807816666667,9.5,11.2,94,985.68,23.8,49,22.00,0.0,1011.31,360.0
2019-08-09 21:50,50.630445,-96.9807783333333,9.2,10.6,94,985.67,24.0,49,21.91,0.0,1011.28,360.0
2019-08-09 22:00,50.6304433333333,-96.9807766666667,9.8,11.3,95,985.56,24.0,50,21.98,0.0,1011.16,360.0
2019-08-09 22:10,50.6304583333333,-96.9807883333333,9.5,10.9,95,985.51,24.0,50,21.99,0.0,1011.11,360.0
2019-08-09 22:20,50.6304483333333,-96.9807816666667,9.2,11.1,93,985.41,24.1,51,22.03,0.0,1011.00,360.0
2019-08-09 22:30,50.630445,-96.98077,9.2,10.9,95,985.38,24.2,51,21.99,0.0,1010.96,360.0
2019-08-09 22:40,50.6304433333333,-96.9807683333333,8.8,10.4,96,985.25,24.2,52,22.05,0.0,1010.83,360.0
2019-08-09 22:50,50.630445,-96.9807733333333,8.8,11.0,94,985.21,24.3,51,22.06,0.0,1010.76,360.0
2019-08-09 23:00,50.630445,-96.9807833333333,8.0,9.9,95,985.30,24.4,52,22.06,0.0,1010.85,90.0
2019-08-09 23:10,50.6304583333333,-96.9807716666667,8.3,9.8,97,985.26,24.3,54,22.14,0.0,1010.80,90.0
2019-08-09 23:20,50.6304666666667,-96.9808016666667,9.2,10.7,96,985.16,24.4,53,22.21,0.0,1010.69,90.0
